TimeCDT,TemperatureF,Dew PointF,Humidity,Sea Level PressureIn,VisibilityMPH,Wind Direction,Wind SpeedMPH,Gust SpeedMPH,PrecipitationIn,Events,Conditions,WindDirDegrees,DateUTC
12:53 AM,69.1,52.0,54,30.06,10.0,Calm,Calm,-,N/A,,Clear,0,2012-09-20 05:53:00
1:53 AM,68.0,52.0,56,30.06,10.0,ESE,3.5,-,N/A,,Clear,110,2012-09-20 06:53:00
2:53 AM,66.9,52.0,59,30.06,10.0,SSE,3.5,-,N/A,,Clear,160,2012-09-20 07:53:00
3:53 AM,64.0,53.1,67,30.05,10.0,South,3.5,-,N/A,,Clear,170,2012-09-20 08:53:00
4:53 AM,62.1,53.1,72,30.06,10.0,Calm,Calm,-,N/A,,Clear,0,2012-09-20 09:53:00
5:53 AM,64.0,53.1,67,30.06,10.0,Calm,Calm,-,N/A,,Clear,0,2012-09-20 10:53:00
6:53 AM,62.1,53.1,72,30.07,10.0,Calm,Calm,-,N/A,,Clear,0,2012-09-20 11:53:00
7:53 AM,62.6,53.6,72,30.09,10.0,Calm,Calm,-,N/A,,Clear,0,2012-09-20 12:53:00
8:53 AM,68.0,55.0,63,30.08,10.0,Calm,Calm,-,N/A,,Clear,0,2012-09-20 13:53:00
9:53 AM,73.9,55.9,53,30.09,10.0,SSW,4.6,-,N/A,,Clear,200,2012-09-20 14:53:00
10:53 AM,79.0,55.0,44,30.09,10.0,South,5.8,-,N/A,,Clear,180,2012-09-20 15:53:00
11:53 AM,82.0,54.0,38,30.07,10.0,Variable,4.6,-,N/A,,Clear,0,2012-09-20 16:53:00
12:53 PM,87.1,51.1,29,30.05,10.0,Variable,4.6,-,N/A,,Clear,0,2012-09-20 17:53:00
1:53 PM,90.0,51.1,26,30.02,10.0,Variable,5.8,-,N/A,,Clear,0,2012-09-20 18:53:00
2:53 PM,90.0,51.1,26,29.99,10.0,Variable,4.6,-,N/A,,Clear,0,2012-09-20 19:53:00
3:53 PM,91.0,50.0,24,29.98,10.0,East,5.8,-,N/A,,Clear,100,2012-09-20 20:53:00
4:53 PM,91.0,50.0,24,29.96,10.0,East,5.8,-,N/A,,Clear,90,2012-09-20 21:53:00
5:53 PM,90.0,48.9,24,29.96,10.0,Variable,3.5,-,N/A,,Clear,0,2012-09-20 22:53:00
6:53 PM,86.0,51.1,30,29.96,10.0,SE,6.9,-,N/A,,Clear,130,2012-09-20 23:53:00
7:53 PM,82.0,53.1,37,29.97,10.0,SSE,3.5,-,N/A,,Clear,160,2012-09-21 00:53:00
8:53 PM,75.9,55.0,48,29.98,10.0,SE,5.8,-,N/A,,Clear,130,2012-09-21 01:53:00
9:53 PM,75.0,55.9,51,30.00,10.0,Calm,Calm,-,N/A,,Clear,0,2012-09-21 02:53:00
10:53 PM,73.0,57.0,57,30.01,10.0,Calm,Calm,-,N/A,,Clear,0,2012-09-21 03:53:00
11:53 PM,72.0,57.0,59,30.01,10.0,Calm,Calm,-,N/A,,Clear,0,2012-09-21 04:53:00